Marysville, OH

7:27 AM EST on November 21, 2017 (GMT -0500)
Marysville

Weather History for KMRT - January, 2014

Change the Weather History Date:

Thursday, January 23, 2014

  Actual Average (KDLZ) Record (KDLZ)
Temperature  
Mean Temperature 6 °F -  
Max Temperature 12 °F 37 °F 61 °F (1967)
Min Temperature -2 °F 20 °F -17 °F (1936)
Degree Days  
Heating Degree Days 60    
Moisture  
Dew Point -3 °F    
Average Humidity 71    
Maximum Humidity 83    
Minimum Humidity 61    
Precipitation  
Precipitation 0.00 in - - ()
Sea Level Pressure  
Sea Level Pressure 30.29 in    
Wind  
Wind Speed 14 mph (West)    
Max Wind Speed 21 mph    
Max Gust Speed 25 mph    
Visibility 8 miles    
Events      
Averages and records for this station are not official NWS values.
T = Trace of Precipitation, MM = Missing Value Source: NWS Daily Summary

Daily Weather History Graph

Daily Weather History Graph

Search for Another Location

Airport or City:

Trip Planner

Search our weather history database for the weather conditions in past years. The results will help you decide how hot, cold, wet, or windy it might be!

Date:

Astronomy

Jan. 23, 2014 Rise Set
Actual Time 7:49 AM EST 5:41 PM EST
Civil Twilight 7:20 AM EST 6:10 PM EST
Nautical Twilight 6:47 AM EST 6:43 PM EST
Astronomical Twilight 6:15 AM EST 7:15 PM EST
Moon 12:12 AM EST (1/23) 11:23 AM EST (1/23)
Length of Visible Light 10h 50m
Length of Day
9h 51m
Waning Gibbous, 55% of the Moon is Illuminated
Jan 23
Waning Gibbous
Jan 24
Last Quarter
Jan 30
New
Feb 6
First Quarter
Feb 14
Full

Hourly Weather History & Observations

Time (EST) Temp. Windchill Dew Point Humidity Pressure Visibility Wind Dir Wind Speed Gust Speed Precip Events Conditions
12:14 AM 11.7 °F -1.7 °F 7.3 °F 83% 29.97 in 2.0 mi SW 10.4 mph - N/A   Overcast
12:34 AM 11.7 °F -0.9 °F 7.5 °F 83% 29.96 in 3.0 mi SW 9.2 mph - N/A   Overcast
12:54 AM 11.7 °F -1.7 °F 7.5 °F 83% 29.96 in 3.0 mi WSW 10.4 mph - N/A   Overcast
1:14 AM 11.8 °F -2.3 °F 7.7 °F 83% 29.96 in 3.0 mi WSW 11.5 mph - N/A   Overcast
1:34 AM 12.7 °F -1.8 °F 7.7 °F 80% 29.97 in 5.0 mi West 12.7 mph - N/A   Overcast
1:54 AM 12.6 °F -2.0 °F 7.3 °F 80% 29.98 in 7.0 mi West 12.7 mph 18.4 mph N/A   Overcast
2:14 AM 11.8 °F -4.2 °F 7.2 °F 81% 29.99 in 1.5 mi West 15.0 mph - N/A   Overcast
2:34 AM 10.4 °F -8.6 °F 5.2 °F 79% 30.01 in 3.0 mi West 20.7 mph - N/A   Overcast
2:55 AM 9.3 °F -8.0 °F 3.9 °F 79% 30.02 in 7.0 mi WNW 16.1 mph - N/A   Mostly Cloudy
3:14 AM 9.1 °F -7.7 °F 3.4 °F 77% 30.03 in 7.0 mi WNW 15.0 mph 21.9 mph N/A   Overcast
3:34 AM 8.2 °F -7.5 °F 2.7 °F 78% 30.05 in 7.0 mi WNW 12.7 mph - N/A   Mostly Cloudy
3:55 AM 8.1 °F -9.0 °F 3.0 °F 80% 30.06 in 4.0 mi West 15.0 mph - N/A   Mostly Cloudy
4:14 AM 7.5 °F -9.7 °F 2.3 °F 79% 30.07 in 4.0 mi WNW 15.0 mph 19.6 mph N/A   Mostly Cloudy
4:34 AM 6.6 °F -12.6 °F 0.7 °F 77% 30.08 in 7.0 mi WNW 18.4 mph 23.0 mph N/A   Overcast
4:54 AM 5.5 °F -12.3 °F -0.4 °F 77% 30.09 in 10.0 mi West 15.0 mph - N/A   Scattered Clouds
5:14 AM 4.8 °F -14.4 °F -1.3 °F 76% 30.10 in 7.0 mi WNW 17.3 mph 21.9 mph N/A   Mostly Cloudy
5:35 AM 4.5 °F -13.7 °F -2.0 °F 75% 30.11 in 7.0 mi West 15.0 mph 20.7 mph N/A   Mostly Cloudy
5:54 AM 3.9 °F -14.3 °F -2.6 °F 74% 30.12 in 7.0 mi WNW 15.0 mph 20.7 mph N/A   Mostly Cloudy
6:14 AM 3.7 °F -14.6 °F -3.1 °F 73% 30.14 in 10.0 mi West 15.0 mph - N/A   Mostly Cloudy
6:35 AM 3.2 °F -14.6 °F -4.0 °F 72% 30.15 in 10.0 mi WNW 13.8 mph - N/A   Overcast
6:54 AM 3.2 °F -13.9 °F -3.5 °F 74% 30.17 in 4.0 mi West 12.7 mph - N/A   Overcast
7:14 AM 2.8 °F -16.4 °F -3.8 °F 74% 30.18 in 7.0 mi WNW 16.1 mph - N/A   Overcast
7:35 AM 3.2 °F -15.3 °F -3.1 °F 75% 30.19 in 2.5 mi WNW 15.0 mph 20.7 mph N/A   Overcast
7:54 AM 3.2 °F -17.1 °F -3.1 °F 75% 30.20 in 3.0 mi WNW 18.4 mph 23.0 mph N/A   Overcast
8:14 AM 2.3 °F -15.7 °F -4.0 °F 75% 30.21 in 4.0 mi WNW 13.8 mph - N/A   Overcast
8:34 AM 2.3 °F -17.1 °F -4.9 °F 72% 30.22 in 7.0 mi WNW 16.1 mph - N/A   Scattered Clouds
8:54 AM 2.3 °F -17.7 °F -5.8 °F 69% 30.24 in 7.0 mi WNW 17.3 mph 21.9 mph N/A   Scattered Clouds
9:15 AM 2.1 °F -17.9 °F -5.8 °F 69% 30.26 in 7.0 mi WNW 17.3 mph 21.9 mph N/A   Mostly Cloudy
9:34 AM 1.6 °F -19.2 °F -6.3 °F 69% 30.27 in 10.0 mi WNW 18.4 mph - N/A   Overcast
9:54 AM 1.9 °F -18.1 °F -6.3 °F 68% 30.28 in 5.0 mi WNW 17.3 mph 23.0 mph N/A   Scattered Clouds
10:15 AM 2.5 °F -18.5 °F -6.3 °F 67% 30.30 in 7.0 mi WNW 19.6 mph 24.2 mph N/A   Scattered Clouds
10:34 AM 3.0 °F -17.3 °F -6.0 °F 66% 30.31 in 10.0 mi West 18.4 mph - N/A   Scattered Clouds
10:54 AM 3.0 °F -18.3 °F -6.3 °F 65% 30.33 in 7.0 mi West 20.7 mph - N/A   Scattered Clouds
11:15 AM 3.7 °F -15.8 °F -5.8 °F 65% 30.33 in 10.0 mi West 17.3 mph 20.7 mph N/A   Clear
11:34 AM 4.1 °F -15.3 °F -5.8 °F 64% 30.34 in 5.0 mi WNW 17.3 mph 24.2 mph N/A   Clear
11:55 AM 5.0 °F -14.2 °F -5.4 °F 62% 30.34 in 10.0 mi WNW 17.3 mph 21.9 mph N/A   Clear
12:14 PM 4.8 °F -13.2 °F -5.3 °F 63% 30.34 in 10.0 mi WNW 15.0 mph - N/A   Clear
12:34 PM 5.4 °F -13.1 °F -5.1 °F 62% 30.35 in 10.0 mi WNW 16.1 mph 20.7 mph N/A   Clear
12:45 PM 5.0 °F -13.0 °F -5.8 °F 61% 30.35 in 10.0 mi West 15.0 mph 24.2 mph N/A   Clear
1:05 PM 5.0 °F -13.6 °F -4.0 °F 66% 30.35 in 10.0 mi West 16.1 mph - N/A   Clear
1:25 PM 5.0 °F -13.6 °F -4.0 °F 66% 30.36 in 10.0 mi West 16.1 mph - N/A   Clear
1:45 PM 6.8 °F -13.4 °F -4.0 °F 61% 30.37 in 10.0 mi West 20.7 mph - N/A   Clear
2:05 PM 6.8 °F -12.9 °F -4.0 °F 61% 30.37 in 7.0 mi West 19.6 mph 25.3 mph N/A   Clear
2:25 PM 6.8 °F -12.9 °F -4.0 °F 61% 30.38 in 10.0 mi West 19.6 mph - N/A   Clear
2:45 PM 6.8 °F -10.0 °F -4.0 °F 61% 30.38 in 7.0 mi West 13.8 mph 24.2 mph N/A   Clear
3:05 PM 6.8 °F -10.7 °F -4.0 °F 61% 30.38 in 10.0 mi West 15.0 mph 23.0 mph N/A   Clear
3:25 PM 6.8 °F -11.8 °F -4.0 °F 61% 30.39 in 10.0 mi West 17.3 mph 20.7 mph N/A   Scattered Clouds
3:39 PM 7.0 °F -10.4 °F -4.0 °F 61% 30.40 in 10.0 mi WNW 15.0 mph 21.9 mph N/A   Mostly Cloudy
3:55 PM 6.8 °F -11.3 °F -3.6 °F 62% 30.41 in 10.0 mi West 16.1 mph 20.7 mph N/A   Overcast
4:14 PM 6.4 °F -12.8 °F -3.8 °F 63% 30.41 in 10.0 mi WNW 18.4 mph 21.9 mph N/A   Overcast
4:35 PM 5.9 °F -11.2 °F -4.5 °F 62% 30.43 in 10.0 mi West 13.8 mph 17.3 mph N/A   Mostly Cloudy
4:54 PM 5.2 °F -12.7 °F -4.7 °F 64% 30.44 in 10.0 mi West 15.0 mph - N/A   Mostly Cloudy
5:14 PM 4.5 °F -14.3 °F -4.5 °F 66% 30.45 in 10.0 mi West 16.1 mph 19.6 mph N/A   Overcast
5:35 PM 4.5 °F -13.0 °F -4.0 °F 68% 30.45 in 10.0 mi West 13.8 mph 18.4 mph N/A   Overcast
5:54 PM 4.5 °F -14.9 °F -4.0 °F 68% 30.46 in 10.0 mi WNW 17.3 mph 21.9 mph N/A   Overcast
6:14 PM 4.1 °F -13.4 °F -3.5 °F 71% 30.47 in 10.0 mi West 13.8 mph - N/A   Overcast
6:34 PM 3.7 °F -13.9 °F -4.0 °F 70% 30.47 in 10.0 mi West 13.8 mph 18.4 mph N/A   Overcast
6:54 PM 2.8 °F -15.7 °F -4.9 °F 70% 30.48 in 10.0 mi West 15.0 mph - N/A   Scattered Clouds
7:14 PM 2.3 °F -13.4 °F -5.4 °F 70% 30.48 in 10.0 mi West 10.4 mph - N/A   Scattered Clouds
7:34 PM 1.8 °F -14.9 °F -5.8 °F 71% 30.49 in 10.0 mi West 11.5 mph 16.1 mph N/A   Scattered Clouds
7:54 PM 1.8 °F -17.1 °F -5.8 °F 71% 30.49 in 10.0 mi WNW 15.0 mph - N/A   Clear
8:14 PM 1.4 °F -14.5 °F -6.3 °F 70% 30.50 in 10.0 mi WNW 10.4 mph - N/A   Scattered Clouds
8:34 PM 1.4 °F -16.1 °F -6.2 °F 71% 30.50 in 10.0 mi WNW 12.7 mph - N/A   Scattered Clouds
8:54 PM 1.0 °F -15.8 °F -6.3 °F 71% 30.50 in 10.0 mi West 11.5 mph - N/A   Mostly Cloudy
9:14 PM 0.3 °F -14.8 °F -6.9 °F 72% 30.50 in 10.0 mi West 9.2 mph 19.6 mph N/A   Scattered Clouds
9:34 PM -0.4 °F -15.7 °F -7.6 °F 72% 30.50 in 10.0 mi West 9.2 mph - N/A   Clear
9:54 PM -0.6 °F -14.9 °F -7.6 °F 72% 30.51 in 10.0 mi West 8.1 mph - N/A   Clear
10:14 PM -0.9 °F -16.4 °F -7.8 °F 73% 30.51 in 10.0 mi West 9.2 mph - N/A   Clear
10:34 PM -1.1 °F -15.5 °F -7.6 °F 74% 30.51 in 10.0 mi West 8.1 mph - N/A   Clear
10:54 PM -1.3 °F -15.7 °F -7.6 °F 75% 30.51 in 10.0 mi West 8.1 mph - N/A   Clear
11:14 PM -1.5 °F -13.3 °F -7.8 °F 75% 30.51 in 10.0 mi West 5.8 mph - N/A   Clear
11:34 PM -1.7 °F -14.9 °F -7.8 °F 75% 30.50 in 10.0 mi West 6.9 mph - N/A   Clear
11:54 PM -2.2 °F -15.6 °F -8.1 °F 76% 30.50 in 10.0 mi West 6.9 mph - N/A   Clear